1998-067PN (43638 NORAD) Tracking and Keplerian Element Data

This shows tracking and keplerian element data for the satellite.

Feedback or suggestion? Click here.




ElementValue
Catalog43638
Name1998-067PN
Epoch Orbit3576
Epoch Day144.39367044
Epoch Year2019
RAAN114.8556
Inclination51.6381
Eccentricity0.0003285
Argument of Perigee17.4819
Mean Anonmoly342.6285
Mean Motion15.57624091
Decay Rate4.64E-05
L11 43638U 98067PN 19144.39367044 .00004640 00000-0 68200-4 0 9993
L22 43638 51.6381 114.8556 0003285 17.4819 342.6285 15.57624091 35769

Live tracking and technical data element details for 1998-067PN (NORAD 43638). 1998-067PN can be tracked NOW for your location showing map with azimuth and elevation plus other details from your city location.

Track the satellite on the map from your city or location and see movement details for azimuth, elevation, latitude, longitude, range, height, and movement on the map or in text.







IsCatalogInMostPopularTable: catalog: 43638, numindb: 132
Update: records affected: 1



GetName: 43638 1998-067PN

Hit Count: updated at: Fri, 24 May 2019 21:03:19 GMT